Snowfall_Accumulation
0.2 1.4 3.7 1.3 0.7 1.1 1.0 1.4 1.6 0.5 0.0 0.1 0.2 0.4 0.3 0.0 0.1 0.1 0.0 0.0 0.0 0.0 0.0 0.0 0.0 0.0 0.0 0.0 0.0 0.0 0.0 0.0 0.0 0.0 0.0 0.0 0.0 0.0 0.0 0.0 0.0 0.0 0.0 0.0
2.1 3.4 1.0 0.4 0.5 1.1 1.3 1.9 1.7 0.6 0.0 0.3 0.3 0.4 0.1 0.0 0.1 0.1 0.1 0.0 0.0 0.0 0.0 0.0 0.0 0.0 0.0 0.0 0.0 0.0 0.0 0.0 0.0 0.0 0.0 0.0 0.0 0.0 0.0 0.0 0.0 0.0 0.0 0.0
4.0 1.6 0.1 0.5 0.8 1.7 1.7 2.0 1.2 1.5 0.3 0.1 0.4 1.0 0.5 0.4 0.1 0.1 0.0 0.0 0.0 0.0 0.0 0.0 0.0 0.0 0.0 0.0 0.0 0.0 0.0 0.0 0.0 0.0 0.0 0.0 0.0 0.0 0.0 0.0 0.0 0.0 0.0 0.0
1.4 0.5 0.2 0.9 0.9 1.4 2.5 0.4 0.5 0.9 1.5 2.9 1.4 4.6 0.9 0.5 0.4 0.2 0.1 0.0 0.0 0.0 0.0 0.0 0.0 0.0 0.0 0.0 0.0 0.0 0.0 0.0 0.0 0.0 0.0 0.0 0.0 0.0 0.0 0.0 0.0 0.0 0.0 0.0
2.8 0.4 0.5 1.8 0.5 0.7 1.3 0.3 0.5 0.7 1.9 3.4 1.3 4.1 2.3 1.1 1.1 0.3 0.4 0.2 0.0 0.0 0.0 0.0 0.0 0.0 0.0 0.0 0.0 0.0 0.0 0.0 0.0 0.0 0.0 0.0 0.0 0.0 0.0 0.0 0.0 0.0 0.0 0.0
0.8 0.1 0.2 0.3 0.1 0.2 0.3 0.2 0.6 1.3 3.3 7.5 2.2 3.6 3.3 2.5 2.0 0.4 0.2 0.2 0.1 0.0 0.0 0.0 0.0 0.0 0.0 0.0 0.0 0.0 0.0 0.0 0.0 0.0 0.0 0.0 0.0 0.0 0.0 0.0 0.0 0.0 0.0 0.0
6.5 1.3 0.3 0.1 1.5 0.7 1.2 7.2 14.2 13.0 11.2 5.2 1.2 2.2 3.2 1.2 0.3 0.4 0.2 0.2 0.2 0.1 0.1 0.0 0.0 0.0 0.0 0.0 0.0 0.0 0.0 0.0 0.0 0.0 0.0 0.0 0.0 0.0 0.0 0.0 0.0 0.0 0.0 0.0
9.5 7.5 1.1 0.3 0.6 1.5 1.7 4.9 10.7 9.2 6.0 2.5 1.5 2.4 2.6 0.3 0.1 0.2 0.2 0.3 0.1 0.1 0.1 0.1 0.0 0.0 0.0 0.0 0.0 0.0 0.0 0.0 0.0 0.0 0.0 0.0 0.0 0.0 0.0 0.0 0.0 0.0 0.0 0.0
6.7 5.7 0.2 0.1 0.2 0.8 2.8 4.2 3.3 7.2 5.1 3.3 2.0 1.9 1.1 0.3 0.3 0.3 0.3 0.2 0.2 0.1 0.1 0.1 0.1 0.0 0.0 0.0 0.0 0.0 0.0 0.0 0.0 0.0 0.0 0.0 0.0 0.0 0.0 0.0 0.0 0.0 0.0 0.0
3.2 6.7 1.6 0.1 0.2 0.3 0.5 1.7 5.6 11.1 8.6 4.7 1.9 1.7 2.4 2.0 1.2 0.8 0.3 0.2 0.1 0.1 0.1 0.1 0.0 0.0 0.0 0.0 0.0 0.0 0.0 0.0 0.0 0.0 0.0 0.0 0.0 0.0 0.0 0.0 0.0 0.0 0.0 0.0
1.0 7.7 5.1 1.9 2.7 3.1 2.7 4.5 6.8 8.5 6.9 6.2 3.7 2.1 1.4 1.4 0.9 0.7 0.2 0.1 0.1 0.1 0.1 0.0 0.0 0.0 0.0 0.0 0.0 0.0 0.0 0.0 0.0 0.0 0.0 0.0 0.0 0.0 0.0 0.0 0.0 0.0 0.0 0.0
0.8 5.9 6.9 2.7 0.1 0.1 1.4 3.2 5.7 10.6 7.5 5.8 4.7 2.6 0.2 0.6 0.3 0.1 0.1 0.1 0.1 0.1 0.0 0.0 0.0 0.0 0.0 0.0 0.0 0.0 0.0 0.0 0.0 0.0 0.0 0.0 0.0 0.0 0.0 0.0 0.0 0.0 0.0 0.0
1.1 7.3 9.4 4.2 1.5 0.2 3.5 2.4 2.7 6.0 11.0 8.9 6.8 2.8 0.1 0.1 0.2 0.1 0.1 0.1 0.1 0.1 0.0 0.0 0.1 0.0 0.0 0.0 0.0 0.0 0.0 0.0 0.0 0.0 0.0 0.0 0.0 0.0 0.0 0.0 0.0 0.0 0.0 0.0
0.4 6.8 7.1 5.3 4.0 4.4 4.5 2.8 3.3 9.7 14.9 7.8 3.5 1.7 0.5 0.3 0.5 0.2 0.1 0.1 0.1 0.0 0.1 0.0 0.1 0.0 0.0 0.0 0.0 0.0 0.0 0.1 0.1 0.1 0.0 0.0 0.0 0.0 0.0 0.0 0.0 0.0 0.0 0.0
0.5 7.7 5.6 2.3 0.9 2.2 3.5 3.2 2.7 6.5 7.1 7.6 3.0 1.4 0.8 0.6 0.6 0.3 0.1 0.1 0.1 0.1 0.0 0.1 0.0 0.0 0.0 0.0 0.0 0.0 0.1 0.0 0.0 0.0 0.0 0.0 0.0 0.0 0.0 0.0 0.0 0.0 0.0 0.0
0.6 4.6 4.8 3.9 0.5 1.1 2.9 1.4 1.2 2.0 1.9 3.3 2.4 1.6 0.4 0.3 0.3 0.3 0.2 0.2 0.1 0.1 0.1 0.0 0.0 0.0 0.0 0.0 0.0 0.0 0.0 0.0 0.0 0.0 0.0 0.0 0.0 0.0 0.0 0.0 0.0 0.0 0.0 0.0
0.9 2.1 8.8 5.3 1.6 2.6 4.9 0.7 1.0 1.3 1.2 1.8 3.0 0.9 0.2 0.2 0.2 0.3 0.2 0.2 0.1 0.1 0.1 0.0 0.0 0.0 0.0 0.0 0.0 0.0 0.0 0.0 0.0 0.0 0.0 0.0 0.0 0.0 0.0 0.0 0.0 0.0 0.1 0.1
0.8 2.4 8.6 6.3 4.1 5.8 1.2 0.1 0.1 0.5 0.9 0.7 0.5 0.4 0.2 0.2 0.2 0.1 0.2 0.2 0.1 0.1 0.1 0.0 0.0 0.0 0.0 0.0 0.0 0.0 0.0 0.0 0.0 0.0 0.0 0.0 0.0 0.0 0.1 0.1 0.4 0.5 0.3 0.4
0.2 1.5 7.3 7.6 5.4 3.0 0.2 0.1 0.2 0.5 1.2 0.6 0.6 0.1 0.1 0.1 0.1 0.1 0.1 0.1 0.1 0.1 0.1 0.0 0.0 0.0 0.0 0.0 0.1 0.1 0.1 0.1 0.1 0.1 0.1 0.1 0.1 0.1 0.2 0.4 0.4 0.7 1.1 1.3
0.2 0.9 5.5 7.3 6.1 2.7 1.0 0.2 0.1 0.3 1.2 0.5 0.2 0.2 0.2 0.2 0.5 0.3 0.1 0.1 0.0 0.0 0.0 0.0 0.0 0.0 0.0 0.1 0.0 0.1 0.4 0.6 0.2 0.2 0.5 0.5 0.4 0.7 1.0 1.0 1.2 1.0 1.1 1.4
1.4 3.3 6.1 5.7 5.5 1.7 0.8 0.3 0.3 1.5 3.5 0.5 0.3 0.3 0.3 0.8 0.5 0.2 0.0 0.0 0.0 0.1 0.0 0.0 0.1 0.1 0.1 0.1 0.1 0.3 0.4 0.9 1.0 0.8 0.8 0.9 1.2 1.1 1.5 1.2 1.0 1.0 1.1 1.0
1.0 2.1 2.6 3.2 5.0 2.5 0.7 0.5 1.2 1.4 0.6 0.4 0.4 0.3 0.2 0.2 0.1 0.1 0.1 0.1 0.1 0.1 0.1 0.1 0.3 0.3 0.3 0.6 1.1 1.3 1.5 1.7 1.5 1.6 2.0 2.1 1.4 1.3 1.4 1.1 1.0 1.0 0.8 0.6
0.8 1.2 1.4 1.7 1.7 0.9 0.6 0.5 0.4 0.3 0.4 0.2 0.2 0.2 0.2 0.2 0.1 0.1 0.1 0.0 0.1 0.0 0.1 0.2 0.2 0.4 0.4 0.7 1.0 1.1 1.5 0.8 1.5 1.9 1.7 1.3 0.8 0.7 0.6 0.6 0.6 0.6 0.5 0.4
0.5 0.5 0.9 1.2 0.7 0.6 0.5 0.3 0.1 0.1 0.2 0.1 0.1 0.1 0.1 0.1 0.1 0.1 0.0 0.1 0.1 0.1 0.1 0.2 0.4 0.4 0.6 0.5 0.5 0.9 1.1 0.9 0.7 0.9 0.7 0.7 0.5 0.4 0.3 0.2 0.2 0.2 0.3 0.4
0.6 0.7 1.2 1.1 0.7 0.6 0.5 0.3 0.2 0.2 0.2 0.1 0.1 0.0 0.0 0.1 0.1 0.1 0.1 0.1 0.1 0.1 0.1 0.1 0.2 0.3 0.4 0.5 0.5 0.5 0.3 0.3 0.3 0.3 0.3 0.2 0.1 0.1 0.1 0.2 0.2 0.2 0.1 0.3
0.4 0.6 1.3 1.2 0.6 0.8 0.6 0.3 0.1 0.2 0.3 0.2 0.2 0.1 0.0 0.1 0.2 0.1 0.0 0.1 0.1 0.1 0.1 0.1 0.1 0.1 0.1 0.1 0.2 0.1 0.1 0.1 0.1 0.1 0.2 0.2 0.3 0.2 0.3 0.2 0.3 0.1 0.0 0.1